This is the latest recevied weather packets stored in our database for station/object N8WJW. If no packets are shown the sender has not sent any weather packets the latest 10 day(s).
| Time | Temp. | Humidity | Pressure | Rain* | Wind** | Luminosity | Snow |
|---|---|---|---|---|---|---|---|
| 1777486280 | 11.67° C | 99% | 1009.5 hPa | 0 mm | - | 76 W/m² | - |
| 1777485977 | 11.67° C | 99% | 1009.5 hPa | 0 mm | - | 91 W/m² | - |
| 1777485674 | 11.67° C | 99% | 1009.6 hPa | 0 mm | - | 64 W/m² | - |
| 1777485369 | 12.22° C | 99% | 1009.3 hPa | 0 mm | - | 79 W/m² | - |
| 1777485065 | 11.67° C | 99% | 1009.4 hPa | 0 mm | - | 92 W/m² | - |
| 1777484763 | 12.22° C | 99% | 1009.4 hPa | 0 mm | - | 93 W/m² | - |
| 1777484458 | 12.22° C | 99% | 1009.3 hPa | 0 mm | - | 88 W/m² | - |
| 1777484156 | 12.22° C | 99% | 1009.4 hPa | 0 mm | - | 115 W/m² | - |
| 1777483851 | 12.22° C | 99% | 1009.5 hPa | 0 mm | - | 153 W/m² | - |
| 1777483548 | 12.22° C | 99% | 1009.6 hPa | 0 mm | - | 75 W/m² | - |
| 1777483243 | 12.22° C | 99% | 1009.6 hPa | 0 mm | - | 91 W/m² | - |
| 1777482940 | 12.78° C | 99% | 1009.6 hPa | 0 mm | - | 133 W/m² | - |
| 1777482636 | 12.78° C | 99% | 1009.4 hPa | 0 mm | - | 204 W/m² | - |
| 1777482333 | 12.22° C | 99% | 1009.4 hPa | 0 mm | - | 274 W/m² | - |
| 1777482030 | 12.22° C | 99% | 1009.6 hPa | 0 mm | - | 265 W/m² | - |
| 1777481728 | 12.22° C | 99% | 1009.7 hPa | 0 mm | - | 235 W/m² | - |
| 1777481425 | 12.22° C | 99% | 1010.1 hPa | 0 mm | - | 194 W/m² | - |
| 1777481121 | 11.67° C | 99% | 1009.9 hPa | 0 mm | - | 157 W/m² | - |
| 1777480818 | 11.67° C | 99% | 1010.1 hPa | 0 mm | - | 112 W/m² | - |
| 1777480515 | 11.67° C | 99% | 1010.2 hPa | 0 mm | - | 37 W/m² | - |
| 1777480211 | 11.67° C | 99% | 1010.4 hPa | 0 mm | - | 25 W/m² | - |
| 1777479908 | 12.22° C | 99% | 1010.6 hPa | 0 mm | - | 18 W/m² | - |
| 1777479604 | 12.78° C | 98% | 1010.8 hPa | 0 mm | - | 19 W/m² | - |
| 1777479303 | 12.78° C | 98% | 1010.5 hPa | 0 mm | - | 18 W/m² | - |
| 1777478998 | 12.78° C | 98% | 1010.3 hPa | 0 mm | - | 27 W/m² | - |
* Rain latest hour (hover to see other rain measurements)
** Current wind speed in m/s (hover to see current wind gust speed)